Location: Unspecified
(52.4292°N, 19.3359°E)
Time: 20:06:22
(UTC+02:00)

SR - All Passes

Search period start: 27 May 2024 00:00
Search period end: 06 June 2024 00:00
Orbit: 579 x 859 km, 66.7° (Epoch: 27 May)

Date Brightness Start Highest point End Pass type
(mag) Time Alt. Az. Time Alt. Az. Time Alt. Az.
27 May - 00:17:44 10° NNW 00:21:40 30° NE 00:25:26 10° E visible
27 May - 01:59:30 10° NW 02:03:46 56° WSW 02:07:54 10° SSE visible
27 May - 16:33:35 10° SSE 16:37:42 25° ESE 16:41:36 10° ENE daylight
27 May - 18:14:14 10° SW 18:19:15 66° NW 18:23:54 10° NE daylight
27 May - 19:58:15 10° WNW 20:01:54 21° NNW 20:05:22 10° NNE daylight
27 May - 21:43:10 10° NNW 21:45:26 13° N 21:47:39 10° NNE visible
27 May - 23:25:34 10° NNW 23:28:57 21° NNE 23:32:14 10° ENE visible
28 May - 01:07:10 10° NW 01:11:32 76° NE 01:15:46 10° SE visible
28 May - 02:50:01 10° WNW 02:52:48 17° WSW 02:55:33 10° SSW visible
28 May - 15:43:30 10° SE 15:45:48 13° ESE 15:48:02 10° E daylight
28 May - 17:21:53 10° SSW 17:26:57 71° SE 17:31:38 10° NE daylight
28 May - 19:04:54 10° W 19:09:12 29° NW 19:13:13 10° NNE daylight
28 May - 20:49:55 10° NW 20:52:28 14° N 20:54:55 10° NNE daylight
28 May - 22:33:19 10° NNW 22:36:07 16° NNE 22:38:50 10° NE visible
29 May - 00:14:56 10° NNW 00:19:07 42° NE 00:23:09 10° ESE visible
29 May - 01:56:59 10° NW 02:00:53 34° WSW 02:04:41 10° S visible
29 May - 16:30:06 10° S 16:34:48 38° ESE 16:39:10 10° NE daylight
29 May - 18:11:50 10° WSW 18:16:38 45° NW 18:21:04 10° NNE daylight
29 May - 19:56:25 10° WNW 19:59:33 17° NNW 20:02:33 10° NNE daylight
29 May - 21:40:51 10° NNW 21:43:11 14° N 21:45:27 10° NE visible
29 May - 23:22:46 10° NNW 23:26:32 26° NNE 23:30:10 10° E visible
30 May - 01:04:28 10° NW 01:08:46 69° SW 01:12:58 10° SSE visible
30 May - 15:39:04 10° SSE 15:42:46 21° ESE 15:46:18 10° ENE daylight
30 May - 17:19:10 10° SW 17:24:13 78° NW 17:28:52 10° NE daylight
30 May - 19:02:55 10° W 19:06:44 23° NNW 19:10:21 10° NNE daylight
30 May - 20:47:56 10° NNW 20:50:12 13° N 20:52:24 10° NNE daylight
30 May - 22:30:35 10° NNW 22:33:46 19° NNE 22:36:52 10° ENE visible
31 May - 00:12:09 10° NW 00:16:29 63° NE 00:20:41 10° SE visible
31 May - 01:54:40 10° WNW 01:57:53 21° WSW 02:01:04 10° SSW visible
31 May - 14:50:04 10° ESE 14:50:55 10° ESE 14:51:46 10° E daylight
31 May - 16:26:59 10° SSW 16:31:57 59° ESE 16:36:33 10° NE daylight
31 May - 18:09:38 10° W 18:14:03 33° NW 18:18:13 10° NNE daylight
31 May - 19:54:35 10° NW 19:57:14 15° NNW 19:59:48 10° NNE daylight
31 May - 21:38:17 10° NNW 21:40:54 15° NNE 21:43:26 10° NE visible
31 May - 23:19:57 10° NNW 23:24:01 36° NE 23:27:56 10° ESE visible
01 Jun - 01:01:51 10° NW 01:05:54 41° WSW 01:09:53 10° S visible
01 Jun - 15:35:22 10° S 15:39:49 32° ESE 15:43:59 10° NE daylight
01 Jun - 17:16:40 10° WSW 17:21:32 53° NW 17:26:03 10° NNE daylight
01 Jun - 19:01:02 10° WNW 19:04:20 18° NNW 19:07:30 10° NNE daylight
01 Jun - 20:45:42 10° NNW 20:47:56 13° N 20:50:07 10° NNE daylight
01 Jun - 22:27:47 10° NNW 22:31:21 24° NNE 22:34:50 10° E visible
02 Jun - 00:09:24 10° NW 00:13:44 84° SW 00:17:58 10° SE visible
02 Jun - 01:52:57 10° W 01:54:48 13° WSW 01:56:38 10° SW visible
02 Jun - 14:44:39 10° SSE 14:47:51 17° ESE 14:50:54 10° ENE daylight
02 Jun - 16:24:08 10° SW 16:29:09 89° SSE 16:33:49 10° NE daylight
02 Jun - 18:07:35 10° W 18:11:33 25° NNW 18:15:19 10° NNE daylight
02 Jun - 19:52:38 10° NW 19:54:57 14° N 19:57:11 10° NNE daylight
02 Jun - 21:35:34 10° NNW 21:38:33 17° NNE 21:41:28 10° ENE daylight
02 Jun - 23:17:07 10° NNW 23:21:23 52° NE 23:25:31 10° ESE visible
03 Jun - 00:59:24 10° WNW 01:02:57 25° WSW 01:06:26 10° S visible
03 Jun - 15:32:05 10° SSW 15:36:56 49° ESE 15:41:25 10° NE daylight
03 Jun - 17:14:22 10° WSW 17:18:56 37° NW 17:23:10 10° NNE daylight
03 Jun - 18:59:11 10° NW 19:01:59 15° NNW 19:04:42 10° NNE daylight
03 Jun - 20:43:13 10° NNW 20:45:38 14° N 20:48:01 10° NE daylight
03 Jun - 22:24:56 10° NNW 22:28:51 31° NE 22:32:40 10° E visible
04 Jun - 00:06:43 10° NW 00:10:53 51° WSW 00:14:58 10° SSE visible
04 Jun - 14:40:42 10° S 14:44:50 26° ESE 14:48:45 10° ENE daylight
04 Jun - 16:21:31 10° SW 16:26:26 62° NW 16:30:59 10° NE daylight
04 Jun - 18:05:38 10° WNW 18:09:07 20° NNW 18:12:26 10° NNE daylight
04 Jun - 19:50:30 10° NNW 19:52:39 13° N 19:54:46 10° NNE daylight
04 Jun - 21:32:46 10° NNW 21:36:09 21° NNE 21:39:27 10° ENE daylight
04 Jun - 23:14:19 10° NW 23:18:40 81° NE 23:22:53 10° SE visible
05 Jun - 00:57:19 10° WNW 00:59:52 16° WSW 01:02:25 10° SSW visible
05 Jun - 13:50:26 10° SE 13:52:54 14° ESE 13:55:19 10° ENE daylight
05 Jun - 15:29:07 10° SSW 15:34:06 76° SE 15:38:43 10° NE daylight
05 Jun - 17:12:14 10° W 17:16:22 28° NNW 17:20:16 10° NNE daylight
05 Jun - 18:57:17 10° NW 18:59:40 14° N 19:01:59 10° NNE daylight
05 Jun - 20:40:31 10° NNW 20:43:18 16° NNE 20:46:01 10° ENE daylight
05 Jun - 22:22:04 10° NNW 22:26:15 44° NE 22:30:19 10° ESE visible
